Regional Weather Roundup
Issued by NWS

Home | Current Version | Previous Version | Text Only | Print | Product List | Glossary Off
Versions: 1 2 3 4 5 6 7 8 9 10 11 12 13 14 15 16 17 18 19 20 21 22 23 24 25 26 27 28 29 30 31 32 33 34 35 36 37 38 39 40 41 42 43 44 45 46 47 48 49 50

184
ASUS43 KTOP 300008
RWRKS

WEATHER ROUNDUP FOR KANSAS
NATIONAL WEATHER SERVICE GOODLAND KS
700 PM CDT FRI JUL 29 2016

NOTE:  "FAIR" INDICATES FEW OR NO CLOUDS BELOW 12,000 FEET WITH NO
SIGNIFICANT WEATHER AND/OR OBSTRUCTIONS TO VISIBILITY.

KSZ001>006-013>018-027>032-041>047-300100-
NORTHWEST KANSAS

CITY           SKY/WX    TMP DP  RH WIND       PRES   REMARKS
GOODLAND       SUNNY     78  61  55 SE8       30.08F
6HR MIN TEMP:  68; 6HR MAX TEMP:  79; 6HR PCP:  0.01;

HAYS           MOSUNNY   86  61  42 E7        29.98F
HILL CITY      SUNNY     85  61  44 E5        30.01S
6HR MIN TEMP:  81; 6HR MAX TEMP:  87;

RUSSELL        SUNNY     87  60  40 N5        29.97F
6HR MIN TEMP:  81; 6HR MAX TEMP:  89;

$$

KSZ061>065-074>080-084>089-300100-
SOUTHWEST KANSAS

CITY           SKY/WX    TMP DP  RH WIND       PRES   REMARKS
DODGE CITY     MOSUNNY   85  60  42 CALM      30.01F
6HR MIN TEMP:  77; 6HR MAX TEMP:  86; 6HR PCP: TRACE;

ELKHART          N/A     80  59  48 E14         N/A
GARDEN CITY    MOSUNNY   81  65  58 S6        30.03F
6HR MIN TEMP:  75; 6HR MAX TEMP:  83;

GREAT BEND     SUNNY     84  64  51 SW3       29.97F
LIBERAL        SUNNY     82  63  51 SE7       30.03F
PRATT          SUNNY     81  62  52 N5        29.99F
6HR MIN TEMP:  78; 6HR MAX TEMP:  82;

$$

KSZ066>073-081>083-090>101-300100-
SOUTHEAST KANSAS

CITY           SKY/WX    TMP DP  RH WIND       PRES   REMARKS
CHANUTE        PTSUNNY   83  69  62 NE6       29.96S
6HR MIN TEMP:  82; 6HR MAX TEMP:  87;

COFFEYVILLE    PTSUNNY   86  69  56 NE7       29.95F
6HR MIN TEMP:  82; 6HR MAX TEMP:  89;

HUTCHINSON     SUNNY     87  65  47 CALM      29.97F
6HR MIN TEMP:  84; 6HR MAX TEMP:  89;

MEDICINE LODGE   N/A     88  61  40 N6        29.95F
NEWTON         SUNNY     82  68  62 E6        29.98F
PARSONS        CLOUDY    85  69  58 CALM      29.96F
6HR MIN TEMP:  82; 6HR MAX TEMP:  87;

WICHITA INTL   MOSUNNY   87  66  49 N8        29.96F
6HR MIN TEMP:  82; 6HR MAX TEMP:  89;

WICHITA JABRA  MOSUNNY   83  69  62 E9        29.97F
6HR MIN TEMP:  80; 6HR MAX TEMP:  88;

WICHITA MCCONL MOSUNNY   85  69  57 NE7       29.96F
WINFIELD       CLOUDY    86  66  51 CALM      29.96F
6HR MIN TEMP:  79; 6HR MAX TEMP:  88;

$$

KSZ007>012-019>026-033>040-048>060-102>105-300100-
NORTHEAST KANSAS

CITY           SKY/WX    TMP DP  RH WIND       PRES   REMARKS
CONCORDIA      MOSUNNY   81  63  54 E3        29.99S
6HR MIN TEMP:  77; 6HR MAX TEMP:  83;

EMPORIA        CLOUDY    82  68  62 E5        29.97F
6HR MIN TEMP:  80; 6HR MAX TEMP:  86;

LAWRENCE       SUNNY     81  66  60 NE8       29.96F
6HR MIN TEMP:  81; 6HR MAX TEMP:  86;

MANHATTAN      MOSUNNY   84  66  54 VRB3      29.96F
6HR MIN TEMP:  79; 6HR MAX TEMP:  86;

MARYSVILLE     PTSUNNY   81  63  54 NE7       29.99S
OLATHE IND     MOSUNNY   82  63  52 N8        29.98S
6HR MIN TEMP:  80; 6HR MAX TEMP:  85;

OLATHE EXE     MOSUNNY   83  61  47 N10       29.97S
6HR MIN TEMP:  80; 6HR MAX TEMP:  86;

SALINA         MOSUNNY   86  64  47 E7        29.97F
6HR MIN TEMP:  83; 6HR MAX TEMP:  89;

TOPEKA BILLARD PTSUNNY   82  66  58 NE7       29.97S
6HR MIN TEMP:  81; 6HR MAX TEMP:  86;

TOPEKA FORBES  MOSUNNY   83  66  56 NE7       29.97F
6HR MIN TEMP:  81; 6HR MAX TEMP:  87; 6HR PCP: TRACE;

$$




USA.gov is the U.S. government's official web portal to all federal, state and local government web resources and services.